Showing default

PRSS 1, 43530

Orbit data source: Space-Track

PRSS 1, 43530 is a payload satellite owned by SUPARCO (PK) in SSO that was launched on Mon, 09 Jul 2018 UTC via a CHANG ZHENG 2C launch vehicle from the Jiuquan Satellite Launch Center, China (JSC). Payloads include a variety of satellites, spacecraft, and rockets equipped with specific instruments for various scientific and technological missions. These include communications satellites like Starlink; space stations such as the ISS; scientific satellites like the Hubble; Earth observation satellites from companies like Planet Labs, Umbra, and HawkEye 360; GPS; miniature CubeSats for education and research; and military/defense satellites.

Loading next visibility...
PRSS 1 details
Identifier
43530, 2018-056B
Orbit
SSO
Last TLE update7 hours ago
Origin
Flag of PKSUPARCO (PK / PAKI)
ManufacturerSUPARCO
MissionOperational Civil Imaging
Bus & MotorPAKTES, Unknown motor
Mass285 kg wet, 285 kg dry
Launch date (UTC)
2018-07-09 (6 years ago)
Launch vehicle
CHANG ZHENG 2C
Launch site
Jiuquan Satellite Launch Center, China (JSC)
Object type
Payload
Rocket body
Debris
Shape & HBRBox + 1 Pan, 4 m
Radar Cross Section5.935 m², Large (>1 m²)

Expand to show TLE details & history

TLE from 7 hours ago
0 PRSS 1
1 43530U 18056B   24361.50019621  .00002774  00000-0  37017-3 0  9996
2 43530  97.8469  71.7551 0001232  81.4216 278.7136 14.80370937348838
Epoch: 2024-12-26T12:00Z
Definitive object data (Epoch: 2024-12-26T12:00:16.952Z)
Latitude-0.00001°
Longitude156.20577°
Altitude631.046 km
Speed7.543 km/s
True Right ascension04h 47m 01s
True Declination0° 00' 00"
Sunlit
Object was in full shadow at TLE epoch
Visualization TLE readout
Latitude8.00068°
Longitude155.36765°
Altitude630.227 km
Speed7.544 km/s
Apparent Right ascension05h 12m 50s
Apparent Declination-14° 50' 31"
Sunlit
Object is in full shadow
Visualization observer readout
Local Sidereal Time17:54:17
Azimuth22.798° NE
Elevation-63.338°
Doppler factor1
Orbital elements
Apogee altitude626.054 km
Perigee altitude624.329 km
Semi-major axis7,003.329 km
Eccentricity0.0001232
Inclination97.8469°
RAAN71.7551°
Arg. of periapsis81.4216°
True anomaly278.69964°
Mean anomaly278.7136°
Eccentric anomaly278.70662°
Mean motion3.70328 °/min
BSTAR0.00037017
Orbital period97.21 mins
Loading maneuver chart data...
Loading historical data...
Loading historical data...
Loading historical data...
Loading historical data...
Loading historical data...
Loading historical data...
Loading historical data...

PRSS 1 Visibility forecast

Observer location: undefined°, undefined

Span
Click to sort rows by Start time (UTC) header in descending order
Start Az.
Max El. time (UTC)
Max El. Az.
Max El.
End time (UTC)
End Az.
4 mins2024-12-26 19:03:46.870Z327.735° NNW2024-12-26 19:05:46.870Z299.797° NW14.14°2024-12-26 19:07:46.870Z269.845° W
6 mins2024-12-27 04:22:46.870Z123.404° SE2024-12-27 04:24:46.870Z77.651° E30.857°2024-12-27 04:28:46.870Z5.59° NNE
4 mins2024-12-27 05:59:46.870Z240.056° WSW2024-12-27 06:01:46.870Z274.412° WNW17.26°2024-12-27 06:03:46.870Z304.622° NW
7 mins2024-12-27 17:46:46.870Z14.02° NNE2024-12-27 17:49:46.870Z37.822° NE44.587°2024-12-27 17:53:46.870Z191.904° SSW
|